Location: Buckeye Ditch
(40.9104°N, 122.9517°W)
Time: 21:44:36
(UTC+00:00)

Transit 2A - Pass Details

Date: 20 May 2025
Orbit: 599 x 947 km, 66.7° (Epoch: 20 June)

Event Time Altitude Azimuth Distance (km) Brightness Sun altitude
Rises 15:12:35 0° 219° (SW) 3,052 8.7 24.9°
Reaches altitude 10° 15:15:01 10° 224° (SW) 2,090 7.9 25.4°
Maximum altitude 15:19:37 56° 302° (WNW) 759 6.1 26.2°
Drops below altitude 10° 15:23:57 10° 21° (NNE) 1,972 8.6 27.1°
Sets 15:26:12 0° 26° (NNE) 2,863 9.4 27.5°
